Regional Weather Roundup
Issued by NWS Albany, NY

Current Version | Previous Version | Text Only | Print | Product List | Glossary On
Versions: 1 2 3 4 5 6 7 8 9 10 11 12 13 14 15 16 17 18 19 20 21 22 23 24 25 26 27 28 29 30 31 32 33 34 35 36 37 38 39 40 41 42 43 44 45 46 47 48 49 50
000
ASUS41 KALY 272310
RWRALY

NEW YORK STATE HOURLY WEATHER ROUNDUP
NATIONAL WEATHER SERVICE ALBANY NY
700 PM EDT SUN MAY 27 2018

NOTE: "FAIR" INDICATES FEW OR NO CLOUDS BELOW 12,000 FEET WITH NO
SIGNIFICANT WEATHER AND/OR NO OBSTRUCTIONS TO VISIBILITY.

NYZ032-033-038>043-046>054-057>066-NYZ062>081-082-084-280000-
EAST


CITY           SKY/WX    TMP DP  RH WIND       PRES   REMARKS
ALBANY         CLOUDY    59  52  77 S6        30.10S
GLENS FALLS    CLOUDY    61  52  72 E6        30.10S
POUGHKEEPSIE   CLOUDY    57  49  74 E7        30.08R
NEWBURGH       CLOUDY    57  54  88 E12       30.09R
MONTGOMERY     CLOUDY    58  52  80 E7        30.08R
WHITE PLAINS   PTSUNNY   57  52  83 NE12      30.06R
ISLIP          CLOUDY    56  54  93 NE14G23   30.06R
NEW YORK CITY  CLOUDY    60  53  77 NE20      30.06R
CENTRAL PARK   CLOUDY    58  53  84 NE8       30.09R
$$

NYZ005>009-017-018-044>046-055-056-280000-
CENTRAL


CITY           SKY/WX    TMP DP  RH WIND       PRES   REMARKS
FULTON         CLOUDY    67  60  78 SE10G17   29.96S
SYRACUSE       CLOUDY    63  63 100 E9        29.96S
ROME           LGT RAIN  60  58  92 E13       30.05S
ELMIRA         CLOUDY    70  66  87 N3        29.96S
BINGHAMTON     CLOUDY    61  60  97 SE10      30.01S
$$

NYZ026>034-041>043-087-280000-
NORTH


CITY           SKY/WX    TMP DP  RH WIND       PRES   REMARKS
WATERTOWN      FAIR      72  62  71 S7        29.95S
FORT DRUM      NOT AVBL
OGDENSBURG     FAIR      75  64  68 SE3       29.96S
MASSENA        FAIR      74  62  66 S9        29.98R
SARANAC LAKE   PTSUNNY   60  59  96 SW5       30.05R
PLATTSBURGH    FAIR      58  51  78 SE10      30.06S
$$

NYZ001>004-010>016-019>021-085-280000-
WEST


CITY           SKY/WX    TMP DP  RH WIND       PRES   REMARKS
NIAGARA FALLS  FAIR      83  65  54 NE5       29.89R
BUFFALO        FAIR      79  63  57 SW10      29.90R
DUNKIRK        FAIR      76  67  73 NW6       29.92R
JAMESTOWN      FAIR      77  63  61 NW9       29.97R
WELLSVILLE     FAIR      69  67  93 SE5       29.99S
ROCHESTER      FAIR      78  67  68 SE10      29.90F
PENN YAN       PTSUNNY   71  65  81 SE10      29.94S
$$

             KEY
       WCI = WIND CHILL INDEX
       VSB = VISIBILITY
       HX  = HEAT INDEX
$$



USA.gov is the U.S. government's official web portal to all federal, state and local government web resources and services.